COSMOS 1275 DEB

Satellite information

Favourite Embed

Satellite Type and Status

DEBRISIN ORBIT

Key statistics

Satellite COSMOS 1275 DEB at a glance.

Uptime

16168

Days in orbit

Revolutions

≈ 13.7

Per day

Orbit

LEO

Low Earth Orbit

Inclination

83.0

Latest

Satellite identification and parameters

Extended collection of information and parameters for COSMOS 1275 DEB.

Object identification

Identified? True

Debris? True

Object name: COSMOS 1275 DEB

International designator: 1981-053HE

Object number (NORAD): 13810

Object ID (CCSDS): 13810

Country: COMMONWEALTH OF INDEPENDENT STATES (CIS)

Current information (Y/N): Y

RCS size: SMALL

Orbital parameters

Period: 105.293 minutes

Inclination: 83.0126 deg

SMA: 7386.303 km

Apoapsis: 1102.256 km

Periapsis: 914.079 km

RAAN: 211.1908 deg

Eccentricy: 0.01273827

Argument of periapsis: 69.2331 deg

Mean anomaly: 81.782 deg

Mean motion: 13.67609548 rev/day

Mean motion (dot): 0.00001391 rev/day2

B* drag term: 0.0015409401 1/REarth

Two-line elements (TLE)

Creation date: Sept. 8, 2025, 6:18 p.m.

Reference frame: TEME

Reference center: EARTH

Epoch: Sept. 8, 2025, 8:05 a.m. UTC

TLE line 0: 0 COSMOS 1275 DEB

TLE line 1: 1 13810U 81053HE 25251.33686190 .00001391 00000-0 15409-2 0 9996

TLE line 2: 2 13810 83.0126 211.1908 0127383 69.2331 81.7820 13.67609548117616

Live tracking on map

Real-time ground track for satellite COSMOS 1275 DEB.

In-orbit conjunctions

A list of the most updated potential collisions computed for object COSMOS 1275 DEB.

Target Orbit TCA Probability of collision Miss distance Type
EXPLORER 11 LEO 2024-11-02 20:29:20 0.0003607363 277.0 (m) PAYLOAD

Associated space launch

Navigation satellite providing location information for the Tsiklon-B navigation system

COSMOS 1275 DEB was lifted into orbit during the mission ‘Kosmos-3M | Parus 27’, on board a Kosmos-3M space rocket.

The launch took place on June 4, 1981, 3:41 p.m. from 132/2.

For more information about the launch, click the button.

Launch to space Kosmos-3M | Parus 27
Kosmos-3M | Parus 27

Agency: N/A

Status: Launch Successful

Launch date: June 4, 1981, 3:41 p.m. UTC

Rocket: Kosmos-3M

Launch pad: 132/2

Location: Plesetsk Cosmodrome, Russian Federation

...

Latest news about this satellite

There are no fresh news available about this satellite. Check back as we update our databases every day.


Newsletter sign-up

Weekly statistics, charts and insights to help you stay on top of the space industry.